| time (UTC) | temp F | wind direction | speed MPH | gust MPH | rain 1hr in | rain 24hr in | rain mn in | humidity % | barometer mb |
| 20260906014505 | 53 | 248 | 0.0 | 9.0 | 0.00 | 0.00 | 0.00 | 50 | 1024.0 |
| 20260906013005 | 54 | 248 | 0.0 | 9.0 | 0.00 | 0.00 | 0.00 | 50 | 1024.0 |
| 20260906011505 | 55 | 225 | 1.0 | 9.0 | 0.00 | 0.00 | 0.00 | 50 | 1024.0 |
| 20260906010005 | 55 | 248 | 1.0 | 9.0 | 0.00 | 0.00 | 0.00 | 50 | 1024.0 |
| 20260906004506 | 56 | 248 | 2.0 | 9.0 | 0.00 | 0.00 | 0.00 | 50 | 1024.0 |
| 20260906003006 | 56 | 248 | 2.0 | 9.0 | 0.00 | 0.00 | 0.00 | 49 | 1024.0 |
| 20260906001506 | 56 | 248 | 1.0 | 9.0 | 0.00 | 0.00 | 0.00 | 49 | 1024.0 |
| 20260906000006 | 57 | 270 | 0.0 | 9.0 | 0.00 | 0.00 | 0.00 | 48 | 1024.0 |
| 20260905234505 | 57 | 270 | 0.0 | 9.0 | 0.00 | 0.00 | 0.00 | 48 | 1024.0 |
| 20260905233006 | 57 | 270 | 0.0 | 9.0 | 0.00 | 0.00 | 0.00 | 48 | 1024.0 |
| 20260905231505 | 57 | 270 | 0.0 | 9.0 | 0.00 | 0.00 | 0.00 | 48 | 1024.0 |
| 20260905230005 | 58 | 270 | 0.0 | 9.0 | 0.00 | 0.00 | 0.00 | 48 | 1024.0 |
| 20260905224505 | 59 | 270 | 0.0 | 9.0 | 0.00 | 0.00 | 0.00 | 48 | 1024.0 |
| 20260905223005 | 59 | 293 | 0.0 | 9.0 | 0.00 | 0.00 | 0.00 | 48 | 1024.0 |
| 20260905221505 | 59 | 270 | 0.0 | 9.0 | 0.00 | 0.00 | 0.00 | 48 | 1024.0 |
| 20260905220005 | 59 | 270 | 0.0 | 9.0 | 0.00 | 0.00 | 0.00 | 48 | 1023.0 |
| 20260905204505 | 60 | 293 | 0.0 | 9.0 | 0.00 | 0.00 | 0.00 | 47 | 1023.0 |
| 20260905203006 | 60 | 270 | 0.0 | 9.0 | 0.00 | 0.00 | 0.00 | 47 | 1023.0 |
| 20260905201505 | 61 | 293 | 0.0 | 9.0 | 0.00 | 0.00 | 0.00 | 46 | 1022.0 |
| 20260905200005 | 62 | 270 | 0.0 | 9.0 | 0.00 | 0.00 | 0.00 | 47 | 1022.0 |
| 20260905194505 | 62 | 270 | 1.0 | 9.0 | 0.00 | 0.00 | 0.00 | 47 | 1022.0 |
| 20260905193005 | 62 | 293 | 3.0 | 9.0 | 0.00 | 0.00 | 0.00 | 47 | 1022.0 |
| 20260905191505 | 61 | 248 | 2.0 | 8.0 | 0.00 | 0.00 | 0.00 | 48 | 1022.0 |
| 20260905190005 | 61 | 225 | 0.0 | 12.0 | 0.00 | 0.00 | 0.00 | 48 | 1022.0 |
| 20260905184505 | 61 | 225 | 0.0 | 12.0 | 0.00 | 0.00 | 0.00 | 49 | 1022.0 |
| 20260905183005 | 61 | 203 | 1.0 | 12.0 | 0.00 | 0.00 | 0.00 | 50 | 1022.0 |
| 20260905181505 | 62 | 203 | 0.0 | 12.0 | 0.00 | 0.00 | 0.00 | 50 | 1021.0 |
| 20260905180005 | 62 | 203 | 0.0 | 12.0 | 0.00 | 0.00 | 0.00 | 51 | 1021.0 |
| 20260905174506 | 63 | 203 | 0.0 | 12.0 | 0.00 | 0.00 | 0.00 | 52 | 1021.0 |
| 20260905173005 | 64 | 203 | 0.0 | 12.0 | 0.00 | 0.00 | 0.00 | 52 | 1021.0 |
| 20260905171505 | 64 | 203 | 0.0 | 12.0 | 0.00 | 0.00 | 0.00 | 53 | 1021.0 |
| 20260905170005 | 64 | 248 | 0.0 | 12.0 | 0.00 | 0.00 | 0.00 | 53 | 1020.0 |
| 20260905164505 | 65 | 203 | 1.0 | 12.0 | 0.00 | 0.00 | 0.00 | 53 | 1020.0 |
| 20260905163005 | 65 | 248 | 1.0 | 12.0 | 0.00 | 0.00 | 0.00 | 54 | 1020.0 |
| 20260905161505 | 66 | 180 | 1.0 | 12.0 | 0.00 | 0.00 | 0.00 | 54 | 1020.0 |
| 20260905160005 | 66 | 225 | 3.0 | 9.0 | 0.00 | 0.00 | 0.00 | 54 | 1020.0 |
| 20260905154505 | 66 | 225 | 5.0 | 33.0 | 0.00 | 0.00 | 0.00 | 55 | 1020.0 |
| 20260905153006 | 66 | 180 | 1.0 | 33.0 | 0.00 | 0.00 | 0.00 | 55 | 1020.0 |
| 20260905151505 | 66 | 248 | 2.0 | 33.0 | 0.00 | 0.00 | 0.00 | 55 | 1020.0 |
| 20260905150005 | 66 | 225 | 1.0 | 33.0 | 0.00 | 0.00 | 0.00 | 55 | 1020.0 |
| 20260905144505 | 66 | 180 | 3.0 | 33.0 | 0.00 | 0.00 | 0.00 | 55 | 1020.0 |
| 20260905143005 | 66 | 203 | 0.0 | 33.0 | 0.00 | 0.00 | 0.00 | 55 | 1020.0 |
| 20260905141505 | 66 | 180 | 0.0 | 33.0 | 0.00 | 0.00 | 0.00 | 56 | 1020.0 |
| 20260905140005 | 66 | 180 | 0.0 | 33.0 | 0.00 | 0.00 | 0.00 | 56 | 1020.0 |
| 20260905134505 | 65 | 203 | 0.0 | 33.0 | 0.00 | 0.00 | 0.00 | 57 | 1021.0 |
| 20260905133005 | 66 | 180 | 0.0 | 33.0 | 0.00 | 0.00 | 0.00 | 57 | 1020.0 |
| 20260905131505 | 66 | 203 | 0.0 | 33.0 | 0.00 | 0.00 | 0.00 | 57 | 1021.0 |
| 20260905130005 | 65 | 203 | 2.0 | 33.0 | 0.00 | 0.00 | 0.00 | 58 | 1021.0 |
| 20260905124505 | 64 | 203 | 0.0 | 33.0 | 0.00 | 0.00 | 0.00 | 58 | 1021.0 |
| 20260905123006 | 64 | 203 | 0.0 | 33.0 | 0.00 | 0.00 | 0.00 | 58 | 1021.0 |
| 20260905121505 | 63 | 203 | 0.0 | 33.0 | 0.00 | 0.00 | 0.00 | 58 | 1021.0 |
| 20260905120005 | 63 | 203 | 0.0 | 33.0 | 0.00 | 0.00 | 0.00 | 58 | 1021.0 |
| 20260905114506 | 63 | 203 | 0.0 | 33.0 | 0.00 | 0.00 | 0.00 | 58 | 1021.0 |
| 20260905113005 | 64 | 180 | 0.0 | 33.0 | 0.00 | 0.00 | 0.00 | 58 | 1021.0 |
| 20260905111505 | 64 | 203 | 0.0 | 33.0 | 0.00 | 0.00 | 0.00 | 58 | 1021.0 |
| 20260905110005 | 63 | 203 | 0.0 | 33.0 | 0.00 | 0.00 | 0.00 | 58 | 1021.0 |
| 20260905104505 | 62 | 203 | 1.0 | 33.0 | 0.00 | 0.00 | 0.00 | 58 | 1021.0 |
| 20260905103005 | 66 | 203 | 2.0 | 33.0 | 0.00 | 0.00 | 0.00 | 58 | 1021.0 |
| 20260905101505 | 65 | 225 | 4.0 | 33.0 | 0.00 | 0.00 | 0.00 | 58 | 1021.0 |
| 20260905100005 | 64 | 203 | 1.0 | 33.0 | 0.00 | 0.00 | 0.00 | 57 | 1021.0 |
| 20260905094505 | 59 | 180 | 4.0 | 33.0 | 0.00 | 0.00 | 0.00 | 58 | 1021.0 |
| 20260905093005 | 58 | 225 | 6.0 | 33.0 | 0.00 | 0.00 | 0.00 | 58 | 1021.0 |
| 20260905091505 | 58 | 180 | 4.0 | 33.0 | 0.00 | 0.00 | 0.00 | 58 | 1021.0 |
| 20260905090005 | 59 | 180 | 1.0 | 33.0 | 0.00 | 0.00 | 0.00 | 58 | 1021.0 |
| 20260905084505 | 61 | 225 | 4.0 | 33.0 | 0.00 | 0.00 | 0.00 | 59 | 1021.0 |
| 20260905083005 | 59 | 248 | 2.0 | 33.0 | 0.00 | 0.00 | 0.00 | 58 | 1021.0 |
| 20260905081505 | 57 | 180 | 0.0 | 33.0 | 0.00 | 0.00 | 0.00 | 57 | 1020.0 |
| 20260905080005 | 56 | 158 | 6.0 | 33.0 | 0.00 | 0.00 | 0.00 | 57 | 1020.0 |
| 20260905074505 | 56 | 158 | 0.0 | 33.0 | 0.00 | 0.00 | 0.00 | 56 | 1020.0 |
| 20260905073005 | 55 | 158 | 5.0 | 33.0 | 0.00 | 0.00 | 0.00 | 56 | 1020.0 |
| 20260905071505 | 56 | 180 | 2.0 | 33.0 | 0.00 | 0.00 | 0.00 | 55 | 1019.0 |
| 20260905070005 | 57 | 180 | 0.0 | 33.0 | 0.00 | 0.00 | 0.00 | 55 | 1019.0 |
| 20260905064505 | 57 | 225 | 0.0 | 33.0 | 0.00 | 0.00 | 0.00 | 55 | 1019.0 |
| 20260905063005 | 56 | 158 | 2.0 | 33.0 | 0.00 | 0.00 | 0.00 | 55 | 1019.0 |
| 20260905061505 | 57 | 338 | 0.0 | 33.0 | 0.00 | 0.00 | 0.00 | 54 | 1018.0 |
| 20260905060006 | 57 | 338 | 0.0 | 22.0 | 0.00 | 0.00 | 0.00 | 53 | 1018.0 |
| 20260905054505 | 57 | 338 | 0.0 | 22.0 | 0.00 | 0.00 | 0.00 | 53 | 1018.0 |
| 20260905053006 | 57 | 338 | 0.0 | 22.0 | 0.00 | 0.00 | 0.00 | 53 | 1018.0 |
| 20260905051505 | 57 | 338 | 0.0 | 22.0 | 0.00 | 0.00 | 0.00 | 52 | 1019.0 |
| 20260905050005 | 57 | 338 | 0.0 | 22.0 | 0.00 | 0.00 | 0.00 | 51 | 1019.0 |
| 20260905044505 | 57 | 315 | 0.0 | 22.0 | 0.00 | 0.00 | 0.00 | 50 | 1019.0 |
| 20260905043005 | 59 | 315 | 0.0 | 22.0 | 0.00 | 0.00 | 0.00 | 49 | 1018.0 |
| 20260905041505 | 61 | 0 | 7.0 | 22.0 | 0.00 | 0.00 | 0.00 | 47 | 1018.0 |
| 20260905040005 | 62 | 315 | 9.0 | 22.0 | 0.00 | 0.00 | 0.00 | 47 | 1017.0 |
| 20260905034505 | 64 | 315 | 11.0 | 22.0 | 0.00 | 0.00 | 0.00 | 47 | 1017.0 |
| 20260905033005 | 65 | 338 | 8.0 | 20.0 | 0.00 | 0.00 | 0.00 | 48 | 1017.0 |
| 20260905031505 | 66 | 338 | 13.0 | 19.0 | 0.00 | 0.00 | 0.00 | 50 | 1016.0 |
| 20260905030005 | 67 | 293 | 2.0 | 16.0 | 0.00 | 0.00 | 0.00 | 51 | 1016.0 |
| 20260905024505 | 67 | 315 | 6.0 | 10.0 | 0.00 | 0.00 | 0.00 | 53 | 1016.0 |
| 20260905023005 | 68 | 315 | 8.0 | 10.0 | 0.00 | 0.00 | 0.00 | 53 | 1016.0 |
| 20260905021505 | 68 | 293 | 4.0 | 7.0 | 0.00 | 0.00 | 0.00 | 54 | 1015.0 |
| 20260905020005 | 68 | 338 | 18.0 | 0.0 | 0.00 | 0.00 | 0.00 | 54 | 1015.0 |